Weather in Yakovlevo

Russia / Orenburg Oblast     54°14′57″N   53°01′44″E
temp.,
°C
wind,
m/s
gust,
m/s
humid.,
%
clouds,
%
prec.,
mm/h
press.,
hPa
HPBL,
m
25 january, mon
mon2523:00−1sw7139499 0.3 1028378
02:00−2sw7139785 0.0 1030370
05:00−3sw7119792 0.0 1031411
08:00−3sw61097100 0.0 1031481
11:00−2ssw61097100 0.1 1032596
14:00−1ssw61094100 0.0 1032675
17:00−1ssw61193100 0.1 1032599
20:00−5s4119786 0.0 1032271
26 january, tue
tue2623:00−5ssw7119591 0.1 1031526
02:00−3ssw71194100 0.1 1031732
05:00−3ssw61194100 0.1 1031704
08:00−3ssw61195100 0.1 1030587
11:00−4ssw71094100 0.1 1030514
14:00−5ssw71196100 0.1 1031454
17:00−5s61195100 0.1 1030432
20:00−7s61294100 0.0 1030341
27 january, wed
wed2723:00−8s71393100 0.0 1030344
02:00−8ssw61494100 0.0 1031366
05:00−9s61295100 0.0 1030302
08:00−9s51396100 0.0 1030290
11:00−9s61295100 0.1 1029339
14:00−7ssw61292100 0.0 1029432
17:00−6s7149299 0.0 1028411
20:00−6s71594100 0.0 1028385
28 january, thu
thu2823:00−8s61392100 0.0 1027340
02:00−8s61391100 0.0 1027334
05:00−7s71391100 0.0 1026346
08:00−7s61491100 0.0 1025357
11:00−7s61490100 0.0 1025358
14:00−6s71388100 0.0 1024386
17:00−7sse51189100 0.0 1023349
20:00−8sse41290100 0.0 1023311
29 january, fri
fri2923:00−9sse41090100 0.0 1022266
02:00−10sse41090100 0.0 1021219
05:00−10se41090100 0.0 1019249
08:00−10se41089100 0.0 1018263
11:00−8se51388100 0.0 1017329
14:00−5sse61284100 0.0 1016424
17:00−5sse51288100 0.0 1014495
20:00−6sse51294100 0.1 1013495